Weather History for Gwinn, MI

Change the Weather History Date:

Tuesday, November 6, 2012

  Actual Average (KESC) Record (KESC)
Temperature  
Mean Temperature 30 °F -  
Max Temperature 37 °F 42 °F 59 °F (2008)
Min Temperature 22 °F 27 °F 5 °F (1985)
Degree Days  
Heating Degree Days 36    
Moisture  
Dew Point 26 °F    
Average Humidity 85    
Maximum Humidity 93    
Minimum Humidity 70    
Precipitation  
Precipitation 0.00 in - - ()
Sea Level Pressure  
Sea Level Pressure 29.95 in    
Wind  
Wind Speed 7 mph (South)    
Max Wind Speed 17 mph    
Max Gust Speed 23 mph    
Visibility 8 miles    
Events Rain , Snow    
Averages and records for this station are not official NWS values.
T = Trace of Precipitation, MM = Missing Value Source: NWS Daily Summary

Daily Weather History Graph

Daily Weather History Graph

Search for Another Location

Airport:

Trip Planner

Search our weather history database for the weather conditions in past years. The results will help you decide how hot, cold, wet, or windy it might be!

Date:

Astronomy

Nov. 06, 2012 Rise Set
Actual Time 7:38 AM EST 5:27 PM EST
Civil Twilight 7:06 AM EST 5:58 PM EST
Nautical Twilight 6:30 AM EST 6:34 PM EST
Astronomical Twilight 5:55 AM EST 7:09 PM EST
Moon No Moon Rise 1:27 PM EST (11/6)
Length of Visible Light 10h 52m
Length of Day
9h 48m
Waning Gibbous, 53% of the Moon is Illuminated
Nov 6
Waning Gibbous
Nov 6
Last Quarter
Nov 13
New
Nov 20
First Quarter
Nov 28
Full

Hourly Weather History & Observations

Time (EST) Temp. Windchill Dew Point Humidity Pressure Visibility Wind Dir Wind Speed Gust Speed Precip Events Conditions
12:15 AM 24.6 °F 17.7 °F 19.9 °F 82% 30.05 in 10.0 mi SSW 5.8 mph - N/A   Clear
12:36 AM 23.4 °F 16.2 °F 19.0 °F 84% 30.05 in 10.0 mi SSW 5.8 mph - N/A   Clear
12:56 AM 23.2 °F 16.0 °F 19.2 °F 85% 30.04 in 10.0 mi SSW 5.8 mph - N/A   Clear
1:15 AM 23.0 °F 14.7 °F 19.2 °F 85% 30.04 in 10.0 mi South 6.9 mph - N/A   Clear
1:36 AM 23.0 °F 15.8 °F 19.0 °F 85% 30.04 in 10.0 mi SSW 5.8 mph - N/A   Clear
1:56 AM 22.8 °F 16.7 °F 19.0 °F 85% 30.03 in 10.0 mi SSW 4.6 mph - N/A   Clear
2:15 AM 22.1 °F 17.4 °F 18.5 °F 86% 30.03 in 10.0 mi SSW 3.5 mph - N/A   Clear
2:36 AM 22.5 °F 15.1 °F 19.0 °F 87% 30.02 in 10.0 mi South 5.8 mph - N/A   Clear
2:56 AM 24.3 °F 16.3 °F 20.1 °F 84% 30.01 in 10.0 mi South 6.9 mph - N/A   Clear
3:15 AM 24.4 °F 15.6 °F 20.3 °F 84% 30.00 in 10.0 mi South 8.1 mph - N/A   Scattered Clouds
3:36 AM 23.5 °F 14.5 °F 19.4 °F 84% 29.99 in 10.0 mi SSW 8.1 mph - N/A   Mostly Cloudy
3:56 AM 23.9 °F 16.8 °F 20.1 °F 85% 29.98 in 10.0 mi SSW 5.8 mph - N/A   Mostly Cloudy
4:16 AM 23.9 °F 18.0 °F 20.1 °F 85% 29.98 in 10.0 mi SSW 4.6 mph - N/A   Overcast
4:36 AM 24.4 °F 17.5 °F 20.3 °F 84% 29.97 in 10.0 mi SSW 5.8 mph - N/A   Overcast
4:55 AM 25.0 °F 17.1 °F 21.0 °F 85% 29.97 in 10.0 mi South 6.9 mph - N/A   Overcast
5:16 AM 25.7 °F 19.0 °F 21.7 °F 85% 29.96 in 10.0 mi South 5.8 mph - N/A   Overcast
5:36 AM 25.9 °F 18.2 °F 21.9 °F 85% 29.96 in 10.0 mi SSW 6.9 mph - N/A   Overcast
5:56 AM 25.7 °F 19.0 °F 22.1 °F 86% 29.95 in 10.0 mi South 5.8 mph - N/A   Overcast
6:50 AM 28.4 °F 21.2 °F 23.0 °F 80% 29.93 in 10.0 mi SSW 6.9 mph - N/A   Overcast
7:50 AM 28.4 °F 19.7 °F 24.8 °F 86% 29.92 in 10.0 mi South 9.2 mph - N/A   Overcast
8:50 AM 30.2 °F 21.9 °F 24.8 °F 80% 29.92 in 10.0 mi SSW 9.2 mph - N/A   Overcast
9:55 AM 32.0 °F 23.0 °F 24.8 °F 75% 29.91 in 10.0 mi South 11.5 mph 17.3 mph N/A   Overcast
10:55 AM 33.8 °F 25.3 °F 26.6 °F 75% 29.90 in 10.0 mi South 11.5 mph - N/A   Overcast
11:50 AM 35.6 °F 26.6 °F 26.6 °F 70% 29.89 in 10.0 mi SSW 13.8 mph 20.7 mph N/A   Mostly Cloudy
12:55 PM 37.4 °F 27.8 °F 28.4 °F 70% 29.87 in 10.0 mi South 17.3 mph 23.0 mph N/A   Overcast
1:50 PM 35.6 °F 27.5 °F 32.0 °F 87% 29.86 in 7.0 mi South 11.5 mph - N/A Snow Light Snow
2:50 PM 35.6 °F 26.2 °F 30.2 °F 81% 29.85 in 10.0 mi South 15.0 mph - N/A   Overcast
3:50 PM 37.4 °F 30.3 °F 30.2 °F 75% 29.85 in 10.0 mi South 10.4 mph 17.3 mph N/A   Overcast
4:50 PM 35.6 °F 28.6 °F 32.0 °F 87% 29.86 in 7.0 mi SE 9.2 mph - N/A   Overcast
5:50 PM 35.6 °F 29.9 °F 32.0 °F 87% 29.87 in 7.0 mi SSE 6.9 mph - N/A   Drizzle
6:55 PM 35.6 °F 30.7 °F 32.0 °F 87% 29.88 in 10.0 mi SSE 5.8 mph - N/A   Overcast
7:50 PM 35.6 °F 30.7 °F 32.0 °F 87% 29.89 in 7.0 mi SSE 5.8 mph - N/A Rain Light Rain
8:50 PM 35.6 °F 31.7 °F 33.8 °F 93% 29.91 in 4.0 mi SSE 4.6 mph - N/A Rain Rain
9:50 PM 35.6 °F 29.9 °F 33.8 °F 93% 29.91 in 4.0 mi SSE 6.9 mph - N/A   Drizzle
10:16 PM 35.6 °F 31.7 °F 33.4 °F 92% 29.92 in 3.0 mi SSE 4.6 mph - N/A Rain Light Rain
10:36 PM 35.6 °F 31.7 °F 33.4 °F 92% 29.92 in 3.0 mi SSE 4.6 mph - N/A Rain Rain
10:56 PM 35.8 °F 31.9 °F 33.8 °F 92% 29.92 in 4.0 mi SSE 4.6 mph - N/A   Light Drizzle
11:16 PM 35.8 °F 29.4 °F 33.8 °F 92% 29.92 in 4.0 mi SSE 8.1 mph - N/A Rain Light Rain
11:36 PM 36.0 °F 31.1 °F 33.8 °F 92% 29.92 in 4.0 mi SE 5.8 mph - N/A   Light Drizzle
11:55 PM 35.8 °F 30.1 °F 33.8 °F 92% 29.92 in 3.0 mi SSE 6.9 mph - N/A Rain Light Rain